When you browse on this site, cookies collect data to enhance your experience and personalize the content and advertising you see.
Visit our Privacy Policy to learn more. By continuing to use the site, you agree to this use of cookies and data.
  • In Schweiz
  • Länderverzeichnis
  • Für 7 Tage
  • Wassertemperatur
  • Wetterkarte
  • Widgets
  • user-avatar
    Anmelden

    Stündliche Wetter Chartres

    Heute, 22 November, Freitag

    Zeit Temperatur Niederschläge Wind Luftdruck Luftfeuchtigkeit
    00:00 +4°C° 0 mm 6 m/S 739 mmHg 90%
    01:00 +4°C° 0 mm 6 m/S 739 mmHg 91%
    02:00 +4°C° 0 mm 6 m/S 739 mmHg 92%
    03:00 +4°C° 0 mm 6 m/S 738 mmHg 92%
    04:00 +4°C° 0 mm 6 m/S 739 mmHg 92%
    05:00 +5°C° 0 mm 5 m/S 739 mmHg 92%
    06:00 +5°C° 0 mm 5 m/S 739 mmHg 92%
    07:00 +5°C° 0 mm 5 m/S 739 mmHg 90%
    08:00 +5°C° 0 mm 5 m/S 738 mmHg 87%
    09:00 +4°C° 0 mm 6 m/S 738 mmHg 85%
    10:00 +7°C° 0 mm 6 m/S 738 mmHg 77%
    11:00 +8°C° 0 mm 6 m/S 737 mmHg 68%
    12:00 +9°C° 0 mm 6 m/S 736 mmHg 60%
    13:00 +9°C° 0 mm 6 m/S 735 mmHg 64%
    14:00 +9°C° 0 mm 6 m/S 734 mmHg 69%
    15:00 +9°C° 0 mm 5 m/S 733 mmHg 74%
    16:00 +9°C° 0 mm 6 m/S 733 mmHg 74%
    17:00 +9°C° 0 mm 6 m/S 732 mmHg 74%
    18:00 +9°C° 0 mm 7 m/S 732 mmHg 74%
    19:00 +9°C° 0 mm 7 m/S 732 mmHg 73%
    20:00 +9°C° 0 mm 7 m/S 731 mmHg 73%
    21:00 +10°C° 0 mm 8 m/S 731 mmHg 73%
    22:00 +10°C° 0.5 mm 8 m/S 731 mmHg 75%
    23:00 +10°C° 0.5 mm 8 m/S 731 mmHg 78%

    Morgen, 23 November, Samstag

    Zeit Temperatur Niederschläge Wind Luftdruck Luftfeuchtigkeit
    00:00 +10°C° 0.5 mm 8 m/S 730 mmHg 80%
    01:00 +10°C° 1 mm 7 m/S 730 mmHg 82%
    02:00 +9°C° 1 mm 7 m/S 730 mmHg 84%
    03:00 +9°C° 1 mm 6 m/S 730 mmHg 87%
    04:00 +9°C° 1.4 mm 7 m/S 730 mmHg 88%
    05:00 +9°C° 1.4 mm 7 m/S 730 mmHg 90%
    06:00 +9°C° 1.4 mm 8 m/S 730 mmHg 91%
    07:00 +9°C° 0.8 mm 7 m/S 730 mmHg 90%
    08:00 +9°C° 0.8 mm 7 m/S 730 mmHg 89%
    09:00 +9°C° 0.8 mm 7 m/S 730 mmHg 88%
    10:00 +10°C° 0.1 mm 6 m/S 731 mmHg 86%
    11:00 +10°C° 0.1 mm 5 m/S 731 mmHg 83%
    12:00 +12°C° 0.1 mm 4 m/S 731 mmHg 81%
    13:00 +12°C° 0 mm 3 m/S 731 mmHg 81%
    14:00 +13°C° 0 mm 2 m/S 732 mmHg 82%
    15:00 +13°C° 0 mm 2 m/S 732 mmHg 83%
    16:00 +12°C° 0 mm 2 m/S 733 mmHg 85%
    17:00 +12°C° 0.1 mm 2 m/S 734 mmHg 88%
    18:00 +10°C° 0.1 mm 2 m/S 734 mmHg 90%
    19:00 +9°C° 0 mm 2 m/S 735 mmHg 92%
    20:00 +9°C° 0 mm 2 m/S 736 mmHg 93%
    21:00 +8°C° 0 mm 2 m/S 736 mmHg 94%
    22:00 +8°C° 0 mm 2 m/S 737 mmHg 95%
    23:00 +8°C° 0 mm 3 m/S 738 mmHg 95%

    übermorgen, 24 November, Sonntag

    Zeit Temperatur Niederschläge Wind Luftdruck Luftfeuchtigkeit
    00:00 +8°C° 0 mm 3 m/S 739 mmHg 95%
    01:00 +8°C° 0 mm 3 m/S 739 mmHg 95%
    02:00 +8°C° 0 mm 3 m/S 740 mmHg 95%
    03:00 +8°C° 0 mm 3 m/S 740 mmHg 95%
    04:00 +8°C° 0 mm 3 m/S 741 mmHg 94%
    05:00 +7°C° 0 mm 3 m/S 741 mmHg 93%
    06:00 +7°C° 0 mm 3 m/S 742 mmHg 93%
    07:00 +7°C° 0 mm 3 m/S 743 mmHg 90%
    08:00 +7°C° 0 mm 3 m/S 744 mmHg 87%
    09:00 +6°C° 0 mm 4 m/S 744 mmHg 84%
    10:00 +7°C° 0 mm 4 m/S 745 mmHg 81%
    11:00 +8°C° 0 mm 4 m/S 745 mmHg 79%
    12:00 +10°C° 0 mm 4 m/S 745 mmHg 76%
    13:00 +10°C° 0 mm 4 m/S 745 mmHg 77%
    14:00 +10°C° 0 mm 4 m/S 745 mmHg 79%
    15:00 +10°C° 0 mm 3 m/S 745 mmHg 80%
    16:00 +8°C° 0 mm 4 m/S 746 mmHg 83%
    17:00 +7°C° 0 mm 4 m/S 746 mmHg 87%
    18:00 +7°C° 0 mm 4 m/S 746 mmHg 90%
    19:00 +7°C° 0 mm 4 m/S 746 mmHg 91%
    20:00 +7°C° 0 mm 5 m/S 746 mmHg 91%
    21:00 +7°C° 0 mm 5 m/S 746 mmHg 92%
    22:00 +7°C° 0 mm 6 m/S 746 mmHg 90%
    23:00 +8°C° 0 mm 6 m/S 746 mmHg 88%

    25 November, Montag

    Zeit Temperatur Niederschläge Wind Luftdruck Luftfeuchtigkeit
    00:00 +8°C° 0 mm 7 m/S 745 mmHg 86%
    01:00 +8°C° 0.1 mm 7 m/S 745 mmHg 87%
    02:00 +8°C° 0.1 mm 7 m/S 745 mmHg 87%
    03:00 +7°C° 0.1 mm 8 m/S 744 mmHg 88%
    04:00 +7°C° 0.5 mm 8 m/S 744 mmHg 89%
    05:00 +7°C° 0.5 mm 8 m/S 744 mmHg 90%
    06:00 +7°C° 0.5 mm 8 m/S 744 mmHg 91%
    07:00 +9°C° 0.1 mm 8 m/S 744 mmHg 90%
    08:00 +9°C° 0.1 mm 7 m/S 744 mmHg 90%
    09:00 +9°C° 0.1 mm 7 m/S 744 mmHg 90%
    10:00 +10°C° 0.2 mm 8 m/S 744 mmHg 89%
    11:00 +10°C° 0.2 mm 8 m/S 744 mmHg 88%
    12:00 +11°C° 0.2 mm 8 m/S 744 mmHg 87%
    13:00 +11°C° 0.1 mm 7 m/S 744 mmHg 86%
    14:00 +11°C° 0.1 mm 7 m/S 744 mmHg 85%
    15:00 +13°C° 0.1 mm 6 m/S 744 mmHg 83%
    16:00 +11°C° 0.1 mm 6 m/S 744 mmHg 84%
    17:00 +11°C° 0.1 mm 6 m/S 744 mmHg 85%
    18:00 +10°C° 0.1 mm 5 m/S 744 mmHg 86%
    19:00 +10°C° 0 mm 5 m/S 744 mmHg 86%
    20:00 +10°C° 0 mm 5 m/S 745 mmHg 86%
    21:00 +9°C° 0 mm 5 m/S 745 mmHg 86%
    22:00 +9°C° 0 mm 5 m/S 745 mmHg 88%
    23:00 +8°C° 0 mm 4 m/S 745 mmHg 89%

    26 November, Dienstag

    Zeit Temperatur Niederschläge Wind Luftdruck Luftfeuchtigkeit
    00:00 +8°C° 0 mm 4 m/S 745 mmHg 90%
    01:00 +8°C° 0 mm 4 m/S 745 mmHg 91%
    02:00 +7°C° 0 mm 4 m/S 745 mmHg 93%
    03:00 +8°C° 0 mm 3 m/S 745 mmHg 94%
    04:00 +8°C° 0 mm 3 m/S 744 mmHg 95%
    05:00 +8°C° 0 mm 3 m/S 744 mmHg 96%
    06:00 +8°C° 0 mm 3 m/S 744 mmHg 97%
    07:00 +8°C° 0 mm 4 m/S 743 mmHg 97%
    08:00 +9°C° 0 mm 5 m/S 743 mmHg 97%
    09:00 +10°C° 0 mm 5 m/S 742 mmHg 97%
    10:00 +11°C° 0.5 mm 6 m/S 742 mmHg 95%
    11:00 +12°C° 0.5 mm 7 m/S 741 mmHg 93%
    12:00 +13°C° 0.5 mm 8 m/S 740 mmHg 91%
    13:00 +13°C° 0.3 mm 8 m/S 740 mmHg 90%
    14:00 +13°C° 0.3 mm 8 m/S 740 mmHg 89%
    15:00 +13°C° 0.3 mm 8 m/S 739 mmHg 88%
    16:00 +13°C° 0.1 mm 8 m/S 740 mmHg 87%
    17:00 +14°C° 0.1 mm 7 m/S 740 mmHg 87%
    18:00 +14°C° 0.1 mm 7 m/S 740 mmHg 87%
    19:00 +14°C° 0.2 mm 7 m/S 739 mmHg 87%
    20:00 +14°C° 0.2 mm 7 m/S 739 mmHg 87%
    21:00 +13°C° 0.2 mm 8 m/S 739 mmHg 87%
    22:00 +13°C° 1.2 mm 8 m/S 738 mmHg 88%
    23:00 +13°C° 1.2 mm 9 m/S 737 mmHg 88%

    27 November, Mittwoch

    Zeit Temperatur Niederschläge Wind Luftdruck Luftfeuchtigkeit
    00:00 +13°C° 1.2 mm 10 m/S 736 mmHg 89%
    01:00 +12°C° 0.9 mm 9 m/S 736 mmHg 87%
    02:00 +11°C° 0.9 mm 9 m/S 736 mmHg 85%
    03:00 +11°C° 0.9 mm 9 m/S 736 mmHg 83%
    04:00 +11°C° 0.5 mm 9 m/S 736 mmHg 83%
    05:00 +11°C° 0.5 mm 9 m/S 736 mmHg 84%
    06:00 +11°C° 0.5 mm 10 m/S 736 mmHg 84%
    07:00 +11°C° 0.2 mm 10 m/S 736 mmHg 82%
    08:00 +9°C° 0.2 mm 10 m/S 736 mmHg 80%
    09:00 +9°C° 0.2 mm 11 m/S 737 mmHg 78%
    10:00 +9°C° 0 mm 10 m/S 737 mmHg 77%
    11:00 +11°C° 0 mm 10 m/S 738 mmHg 77%
    12:00 +11°C° 0 mm 9 m/S 738 mmHg 76%
    13:00 +11°C° 0.1 mm 9 m/S 739 mmHg 77%
    14:00 +11°C° 0.1 mm 8 m/S 739 mmHg 77%
    15:00 +11°C° 0.1 mm 8 m/S 740 mmHg 78%
    16:00 +10°C° 0.1 mm 7 m/S 740 mmHg 80%
    17:00 +10°C° 0.1 mm 7 m/S 741 mmHg 82%
    18:00 +10°C° 0.1 mm 6 m/S 742 mmHg 85%
    19:00 +9°C° 0 mm 6 m/S 742 mmHg 86%
    20:00 +8°C° 0 mm 5 m/S 743 mmHg 87%
    21:00 +8°C° 0 mm 5 m/S 743 mmHg 89%
    22:00 +8°C° 0.1 mm 5 m/S 743 mmHg 90%
    23:00 +8°C° 0.1 mm 5 m/S 743 mmHg 92%
    Mehr zeigen